Location: Newark
(44.1667°N, 8.2500°E)
Time: 04:19:43
(UTC+00:00)

Transit 4A - Visible Passes

Search period start: 10 December 2019 00:00
Search period end: 20 December 2019 00:00
Orbit: 870 x 975 km, 66.8° (Epoch: 09 December)

Date Brightness Start Highest point End Pass type
(mag) Time Alt. Az. Time Alt. Az. Time Alt. Az.
10 Dec 8.0 16:38:34 10° SW 16:44:47 81° WNW 16:50:52 10° NNE visible
10 Dec 9.9 18:27:43 10° W 18:32:05 20° NW 18:35:12 14° N visible
11 Dec 8.4 16:48:06 10° SW 16:54:12 57° NW 17:00:09 10° NNE visible
11 Dec 10.1 18:38:22 10° WNW 18:41:52 15° NNW 18:44:28 12° N visible
12 Dec 8.9 16:57:52 10° WSW 17:03:40 41° NW 17:09:21 10° NNE visible
12 Dec 10.2 18:49:23 10° NW 18:51:44 12° NNW 18:53:42 11° N visible
13 Dec 9.4 17:07:51 10° WSW 17:13:13 31° NW 17:18:30 10° NNE visible
14 Dec 9.7 17:18:05 10° W 17:22:52 23° NW 17:27:36 10° NNE visible
15 Dec 10.0 17:28:33 10° WNW 17:32:36 18° NW 17:36:36 10° N visible
16 Dec 10.1 17:39:19 10° WNW 17:42:25 14° NNW 17:45:30 10° N visible
17 Dec 10.2 17:50:33 10° NW 17:52:20 11° NNW 17:54:05 10° N visible
19 Dec 9.7 16:18:51 10° W 16:23:22 21° NW 16:27:50 10° N visible
